Aurora, OR

8:44 AM PDT on August 17, 2017 (GMT -0700)
Aurora State

Weather History for KUAO - May, 2013

Change the Weather History Date:

Wednesday, May 15, 2013

  Actual Average Record
Temperature  
Mean Temperature 52 °F -  
Max Temperature 59 °F - 99 °F (2006)
Min Temperature 47 °F - 39 °F (2002)
Degree Days  
Heating Degree Days 12    
Month to date heating degree days 60  
Since 1 July heating degree days 4109  
Cooling Degree Days 0    
Month to date cooling degree days 15  
Year to date cooling degree days 15  
Growing Degree Days 2 (Base 50)    
Moisture  
Dew Point 48 °F    
Average Humidity 79    
Maximum Humidity 86    
Minimum Humidity 72    
Precipitation  
Precipitation 0.09 in - 0.70 in (1959)
Month to date precipitation 0.19  
Year to date precipitation 8.10  
Sea Level Pressure  
Sea Level Pressure 30.09 in    
Wind  
Wind Speed 2 mph (SSW)    
Max Wind Speed 8 mph    
Max Gust Speed 13 mph    
Visibility 10 miles    
Events Rain    
T = Trace of Precipitation, MM = Missing Value Source: NWS Daily Summary

Daily Weather History Graph

Daily Weather History Graph

Search for Another Location

Airport or City:

Trip Planner

Search our weather history database for the weather conditions in past years. The results will help you decide how hot, cold, wet, or windy it might be!

Date:

Astronomy

May. 15, 2013 Rise Set
Actual Time 5:40 AM PDT 8:34 PM PDT
Civil Twilight 5:06 AM PDT 9:09 PM PDT
Nautical Twilight 4:22 AM PDT 9:53 PM PDT
Astronomical Twilight 3:30 AM PDT 10:45 PM PDT
Moon 10:24 AM PDT (5/15) 12:22 AM PDT (5/15)
Length of Visible Light 16h 02m
Length of Day
14h 53m
Waxing Crescent, 28% of the Moon is Illuminated
May 15
Waxing Crescent
May 17
First Quarter
May 24
Full
May 31
Last Quarter
Jun 8
New

Hourly Weather History & Observations

Time (PDT) Temp. Dew Point Humidity Pressure Visibility Wind Dir Wind Speed Gust Speed Precip Events Conditions
12:53 AM 50.0 °F 43.0 °F 77% 30.13 in 10.0 mi Calm Calm - N/A   Clear
1:53 AM 48.0 °F 43.0 °F 83% 30.12 in 10.0 mi Calm Calm - N/A   Mostly Cloudy
2:53 AM 48.9 °F 42.1 °F 77% 30.12 in 10.0 mi Calm Calm - N/A   Partly Cloudy
3:53 AM 48.0 °F 43.0 °F 83% 30.12 in 10.0 mi Calm Calm - N/A   Partly Cloudy
4:53 AM 48.9 °F 43.0 °F 80% 30.10 in 10.0 mi Calm Calm - N/A   Scattered Clouds
5:53 AM 48.0 °F 43.0 °F 83% 30.10 in 10.0 mi Calm Calm - N/A   Mostly Cloudy
6:53 AM 48.9 °F 43.0 °F 80% 30.10 in 10.0 mi Calm Calm - N/A   Overcast
7:53 AM 50.0 °F 44.1 °F 80% 30.11 in 10.0 mi Calm Calm - N/A   Overcast
8:53 AM 51.1 °F 45.0 °F 80% 30.12 in 10.0 mi SW 3.5 mph - N/A   Overcast
9:53 AM 52.0 °F 46.0 °F 80% 30.13 in 9.0 mi WSW 3.5 mph - 0.00 in Rain Light Rain
10:53 AM 52.0 °F 46.9 °F 83% 30.14 in 10.0 mi SSW 5.8 mph - 0.02 in Rain Light Rain
11:53 AM 53.1 °F 48.9 °F 86% 30.13 in 10.0 mi South 4.6 mph - 0.01 in   Overcast
12:21 PM 53.6 °F 48.2 °F 82% 30.13 in 10.0 mi SSW 4.6 mph - 0.00 in Rain Light Rain
12:53 PM 53.1 °F 48.0 °F 83% 30.13 in 10.0 mi SSW 3.5 mph - 0.00 in   Overcast
1:34 PM 51.8 °F 48.2 °F 88% 30.12 in 8.0 mi SSW 4.6 mph - 0.02 in Rain Light Rain
1:53 PM 54.0 °F 50.0 °F 86% 30.12 in 8.0 mi South 8.1 mph - 0.05 in Rain Light Rain
2:42 PM 53.6 °F 50.0 °F 88% 30.11 in 10.0 mi South 5.8 mph - 0.01 in Rain Light Rain
2:53 PM 55.0 °F 50.0 °F 83% 30.11 in 10.0 mi SSE 5.8 mph - 0.01 in   Overcast
3:03 PM 55.4 °F 50.0 °F 82% 30.10 in 10.0 mi South 8.1 mph - N/A   Overcast
3:45 PM 55.4 °F 50.0 °F 82% 30.10 in 10.0 mi SSE 4.6 mph - N/A   Overcast
3:53 PM 57.0 °F 50.0 °F 77% 30.10 in 10.0 mi SSW 4.6 mph - N/A   Overcast
4:09 PM 55.4 °F 48.2 °F 77% 30.09 in 10.0 mi Variable 3.5 mph - N/A   Overcast
4:40 PM 57.2 °F 50.0 °F 77% 30.08 in 10.0 mi SSW 3.5 mph - 0.00 in   Mostly Cloudy
4:48 PM 57.2 °F 48.2 °F 72% 30.08 in 10.0 mi SSW 6.9 mph - 0.00 in   Mostly Cloudy
4:53 PM 57.9 °F 48.9 °F 72% 30.08 in 10.0 mi South 5.8 mph - 0.00 in   Overcast
5:21 PM 57.2 °F 48.2 °F 72% 30.07 in 10.0 mi SSW 3.5 mph - N/A   Overcast
5:44 PM 57.2 °F 48.2 °F 72% 30.07 in 10.0 mi SSW 3.5 mph - N/A   Overcast
5:53 PM 57.0 °F 48.9 °F 74% 30.07 in 10.0 mi SSW 4.6 mph - N/A   Overcast
6:53 PM 57.0 °F 48.9 °F 74% 30.06 in 10.0 mi SSE 3.5 mph - N/A   Overcast
7:53 PM 57.0 °F 50.0 °F 77% 30.06 in 10.0 mi Calm Calm - N/A   Overcast
8:53 PM 57.0 °F 50.0 °F 77% 30.05 in 10.0 mi Calm Calm - N/A   Overcast
9:41 PM 55.4 °F 51.8 °F 88% 30.06 in 10.0 mi Calm Calm - N/A   Overcast
9:53 PM 55.0 °F 51.1 °F 86% 30.06 in 10.0 mi Calm Calm - N/A   Overcast
10:42 PM 55.4 °F 51.8 °F 88% 30.05 in 10.0 mi Calm Calm - N/A   Overcast
10:53 PM 55.0 °F 51.1 °F 86% 30.05 in 10.0 mi Calm Calm - N/A   Overcast
11:53 PM 55.0 °F 52.0 °F 89% 30.04 in 10.0 mi NE 3.5 mph - N/A   Overcast